Location: Unspecified
(0.0000°N, 0.0000°E)
Time: 13:51:06
(UTC+00:00)

Vanguard 1 - All Passes

Search period start: 23 February 2017 00:00
Search period end: 05 March 2017 00:00
Orbit: 652 x 3832 km, 34.3° (Epoch: 21 February)

Date Brightness Start Highest point End Pass type
(mag) Time Alt. Az. Time Alt. Az. Time Alt. Az.
23 Feb - 00:12:25 10° NW 00:35:44 67° NE 00:51:00 10° ESE visible
23 Feb - 02:41:43 10° WNW 03:00:38 50° SW 03:11:32 10° SSE visible
23 Feb - 12:30:34 10° SSW 12:35:25 45° SE 12:43:01 10° ENE daylight
23 Feb - 14:50:22 10° W 14:56:53 37° NNW 15:08:01 10° NE daylight
23 Feb - 17:15:55 10° NW 17:23:31 17° N 17:33:49 10° NNE daylight
23 Feb - 19:43:48 10° NNW 19:56:11 19° NNE 20:10:31 10° NE visible
23 Feb - 22:08:24 10° NNW 22:29:02 38° NNE 22:47:01 10° E visible
24 Feb - 00:34:04 10° NW 00:57:36 82° NE 01:12:30 10° ESE visible
24 Feb - 03:05:03 10° WNW 03:21:51 38° SW 03:32:01 10° SSE visible
24 Feb - 12:51:17 10° SW 12:56:23 77° SE 13:04:56 10° ENE daylight
24 Feb - 15:12:27 10° WNW 15:18:53 27° NNW 15:29:03 10° NNE daylight
24 Feb - 17:39:31 10° NNW 17:46:48 15° N 17:56:05 10° NNE daylight
24 Feb - 20:05:44 10° NNW 20:19:57 22° NNE 20:35:55 10° ENE visible
24 Feb - 22:29:41 10° NW 22:51:40 47° NNE 23:09:52 10° E visible
25 Feb - 00:55:59 10° NW 01:19:16 82° SW 01:33:43 10° SE visible
25 Feb - 03:29:06 10° W 03:43:09 27° SW 03:52:17 10° SSE visible
25 Feb - 10:55:30 10° S 10:57:38 13° SE 10:59:57 10° ESE daylight
25 Feb - 13:12:19 10° WSW 13:17:34 66° NW 13:26:26 10° NE daylight
25 Feb - 15:35:04 10° WNW 15:41:08 20° NNW 15:49:57 10° NNE daylight
25 Feb - 18:02:54 10° NNW 18:10:20 14° N 18:19:29 10° NNE daylight
25 Feb - 20:27:14 10° NNW 20:43:25 26° NNE 21:00:58 10° ENE visible
25 Feb - 22:50:59 10° NW 23:14:00 57° NE 23:32:14 10° ESE visible
26 Feb - 01:18:15 10° WNW 01:40:46 66° SW 01:54:42 10° SE visible
26 Feb - 03:54:06 10° WSW 04:04:40 19° SW 04:12:11 10° S visible
26 Feb - 11:14:55 10° SSW 11:18:39 24° SE 11:23:17 10° E daylight
26 Feb - 13:33:44 10° W 13:39:00 41° NNW 13:47:38 10° NE daylight
26 Feb - 15:58:17 10° NW 16:03:40 15° N 16:10:48 10° NNE daylight
26 Feb - 18:25:34 10° NNW 18:33:59 15° N 18:44:18 10° NE visible
26 Feb - 20:48:29 10° NNW 21:06:31 32° NNE 21:25:22 10° E visible
26 Feb - 23:12:23 10° NW 23:36:06 70° NE 23:54:09 10° ESE visible
27 Feb - 01:40:58 10° WNW 02:02:12 52° SW 02:15:29 10° SSE visible
27 Feb - 04:20:31 10° WSW 04:26:29 13° SW 04:31:20 10° S visible
27 Feb - 11:35:15 10° SW 11:39:36 45° SE 11:45:30 10° ENE daylight
27 Feb - 13:55:35 10° W 14:00:41 28° NNW 14:08:31 10° NNE daylight
27 Feb - 16:22:09 10° NNW 16:26:29 12° N 16:31:43 10° NNE daylight
27 Feb - 18:47:27 10° NNW 18:57:38 17° NNE 19:10:06 10° NE visible
27 Feb - 21:09:37 10° NNW 21:29:15 39° NNE 21:49:03 10° E visible
27 Feb - 23:33:57 10° NW 23:58:00 84° NE 00:15:43 10° SE visible
28 Feb - 02:04:17 10° WNW 02:23:38 40° SW 02:36:05 10° SSE visible
28 Feb - 11:56:02 10° SW 12:00:36 85° SE 12:07:10 10° NE daylight
28 Feb - 14:17:59 10° WNW 14:22:36 19° NNW 14:29:06 10° NNE daylight
28 Feb - 16:46:24 10° NNW 16:49:34 11° N 16:53:07 10° NNE daylight
28 Feb - 19:08:48 10° NNW 19:21:05 20° NNE 19:36:03 10° ENE visible
28 Feb - 21:30:43 10° NW 21:51:42 48° NE 22:12:05 10° ESE visible
28 Feb - 23:55:46 10° NW 00:19:45 81° SW 00:37:00 10° SE visible
01 Mar - 02:28:19 10° W 02:45:12 30° SW 02:56:31 10° SSE visible
01 Mar - 09:59:34 10° S 10:01:44 13° SE 10:03:56 10° ESE daylight
01 Mar - 12:17:13 10° WSW 12:21:46 53° NNW 12:28:25 10° NE daylight
01 Mar - 14:41:12 10° NW 14:44:47 14° NNW 14:49:15 10° NNE daylight
01 Mar - 17:09:40 10° N 17:12:52 11° N 17:16:25 10° NNE daylight
01 Mar - 19:29:51 10° NNW 19:44:13 25° NNE 20:01:33 10° ENE visible
01 Mar - 21:51:51 10° NW 22:13:54 59° NE 22:34:33 10° ESE visible
02 Mar - 00:17:57 10° WNW 00:41:24 66° SW 00:58:04 10° SE visible
02 Mar - 02:53:15 10° W 03:07:01 23° SW 03:16:44 10° S visible
02 Mar - 10:19:11 10° SSW 10:22:55 25° SE 10:26:52 10° E daylight
02 Mar - 12:38:50 10° W 12:43:10 31° NNW 12:49:18 10° NNE daylight
02 Mar - 17:31:10 10° N 17:36:15 12° NNE 17:42:10 10° NE daylight
02 Mar - 19:50:47 10° NNW 20:07:00 31° NNE 20:26:17 10° E visible
02 Mar - 22:13:08 10° NW 22:35:55 72° NE 22:56:35 10° ESE visible
03 Mar - 00:40:35 10° WNW 01:03:03 53° SW 01:18:57 10° SE visible
03 Mar - 03:19:14 10° WSW 03:29:07 16° SSW 03:36:39 10° S visible
03 Mar - 10:39:39 10° SW 10:43:57 49° SE 10:48:49 10° ENE daylight
03 Mar - 13:01:00 10° WNW 13:04:46 19° NNW 13:09:45 10° NNE daylight
03 Mar - 17:51:59 10° N 17:59:34 15° NNE 18:08:52 10° NE daylight
03 Mar - 20:11:40 10° NNW 20:29:27 39° NE 20:50:13 10° E visible
03 Mar - 22:34:35 10° NW 22:57:49 86° NE 23:18:16 10° SE visible
04 Mar - 01:03:47 10° WNW 01:24:46 42° SW 01:39:41 10° SSE visible
04 Mar - 03:46:45 10° SW 03:51:33 12° SSW 03:55:42 10° S visible
04 Mar - 11:00:36 10° SW 11:05:00 83° NW 11:10:14 10° NE daylight
04 Mar - 13:24:11 10° NW 13:26:37 12° NNW 13:29:27 10° N daylight
04 Mar - 18:12:37 10° NNW 18:22:38 18° NNE 18:35:26 10° ENE visible
04 Mar - 20:32:34 10° NW 20:51:38 49° NE 21:13:27 10° ESE visible
04 Mar - 22:56:17 10° WNW 23:19:38 80° SW 23:39:38 10° SE visible
